AirNav   Everest Fuels
 
 767 users online  

05IN Cooper Airport
Belleville, Indiana, USA

GOING TO BELLEVILLE?


FAA INFORMATION EFFECTIVE 05 DECEMBER 2019

Location

FAA Identifier: 05IN
Lat/Long: 39-38-31.1670N 086-30-14.9910W
39-38.519450N 086-30.249850W
39.6419908,-86.5041642
(estimated)
Elevation: 860 ft. / 262 m (estimated)
Variation: 02W (1985)
From city: 3 miles SW of BELLEVILLE, IN
Time zone: UTC -5 (UTC -4 during Daylight Saving Time)
Zip code: 46118

Airport Operations

Airport use: Private use. Permission required prior to landing
Activation date: 01/1976
Control tower: no
ARTCC: INDIANAPOLIS CENTER
FSS: TERRE HAUTE FLIGHT SERVICE STATION
Attendance: UNATNDD
Segmented circle: no

Airport Communications

WX AWOS-3P at 2R2 (6 nm N): 118.025 (317-718-4872)
WX ASOS at IND (11 nm NE): PHONE 317-241-0348
WX AWOS-3P at GPC (14 nm W): 118.125 (765-653-1789)
WX ASOS at EYE (15 nm NE): 121.575 (317-329-1754)
WX AWOS-3 at 8A4 (18 nm NE): 118.250 (317-955-3160)
WX AWOS-3P at HFY (19 nm E): 118.525 (317-882-5862)

Nearby radio navigation aids

VOR radial/distance  VOR name  Freq  Var
VHPr210/12.1BRICKYARD VORTAC116.3001E
OOMr012/30.3HOOSIER VORTAC110.2002W
SHBr270/31.4SHELBYVILLE VOR/DME112.0001E
TTHr073/35.7TERRE HAUTE VORTAC115.3002E

 
NDB name  Hdg/Dist  Freq  Var  ID
METROPOLITAN233/27.433803WUMP ..- -- .--.
CRAWFORDSVILLE141/27.838804WCFJ -.-. ..-. .---

Airport Services

Runway Information

Runway 8/26

Dimensions: 2000 x 100 ft. / 610 x 30 m
Surface: turf
RUNWAY 8  RUNWAY 26
Traffic pattern: leftleft

Airport Ownership and Management from official FAA records

Ownership: Privately-owned
Owner: MICHAEL COOPER
1075 E 800 S
CLAYTON, IN 46118
Phone 317-539-2809
Manager: MICHAEL COOPER
1075 E 800 S
CLAYTON, IN 46118
Phone 317-539-2809

Airport Operational Statistics

Aircraft based on the field: 2
Single engine airplanes: 2
    

Additional Remarks

FOR CD CTC INDIANAPOLIS APCH AT 317-227-5743.

Instrument Procedures

There are no published instrument procedures at 05IN.

Some nearby airports with instrument procedures:

2R2 - Hendricks County Airport-Gordon Graham Field (6 nm N)
KIND - Indianapolis International Airport (11 nm NE)
KGPC - Putnam County Regional Airport (14 nm W)
KEYE - Eagle Creek Airpark (15 nm NE)
8A4 - Indianapolis Downtown Heliport (18 nm NE)
KHFY - Indy South Greenwood Airport (19 nm E)
 
Loc | Ops | Rwys | IFR | FBO | Links
Com | Nav | Svcs | Stats | Notes
Area around 05IN (Cooper Airport)
 
Road maps at: MapQuest Bing Google
 
Aerial photo
No photo
 
Sectional chart

 
Airport distance calculator
Flying to Cooper Airport? Find the distance to fly.

From to 05IN

Sunrise and sunset
Times for 06-Dec-2019
 Local
(UTC-5)
 Zulu
(UTC)
Morning civil twilight07:2312:23
Sunrise07:5312:53
Sunset17:2122:21
Evening civil twilight17:5122:51

Current date and time
Zulu (UTC)  06-Dec-2019 06:47:17
Local (UTC-5)  06-Dec-2019 01:47:17
 
METAR
KIND 
11nm NE 
060554Z 19008KT 10SM SCT110 BKN250 07/00 A3001 RMK AO2 SLP164 T00720000 10072 20039 56006
KGPC 
14nm W 
060635Z AUTO 22006KT 10SM SCT110 09/00 A3001 RMK AO2
KEYE 
15nm NE 
060553Z AUTO 00000KT 10SM CLR 05/M01 A3000 RMK AO2 SLP164 T00501006 10067 20022 56007
KHFY 
19nm E 
052155Z AUTO 15006KT 10SM CLR 09/01 A3005 RMK AO2 T00850008
TAF
KIND 
11nm NE 
060520Z 0606/0712 20006KT P6SM BKN100 FM061200 27007KT P6SM OVC070 FM061400 31009KT P6SM SCT015 OVC021 FM061900 01011KT P6SM BKN060 FM062300 02008KT P6SM SCT250
NOTAMs
Click for the latest NOTAMs
NOTAMs are issued by the DoD/FAA and will open in a separate window not controlled by AirNav.

 

 
 

Would you like to see your business listed on this page?

 If your business provides an interesting product or service to pilots, flight crews, aircraft, or users of the Cooper Airport, you should consider listing it here.  To start the listing process, click on the button below
 
Add a business
 

Other Pages about Cooper Airport

Update a link
 
Copyright © AirNav, LLC. All rights reserved. Privacy Policy  Contact